DW3319 Weather Reports


Display with metric or nautical units.
time (UTC)temp
F
wind
direction
speed
MPH
gust
MPH
rain 1hr
in
rain 24hr
in
rain mn
in
humidity
%
barometer
mb
20260505063106 66 129 2.0 5.0 0.00 0.00 0.00 95 1011.5
20260505061543 65 123 1.0 5.0 0.00 0.00 0.00 95 1011.6
20260505060042 65 124 1.0 3.0 0.00 0.00 0.00 94 1011.7
20260505054542 65 129 1.0 5.0 0.00 0.00 0.00 94 1011.7
20260505053049 65 93 1.0 3.0 0.00 0.00 0.00 93 1011.9
20260505051544 66 115 1.0 4.0 0.00 0.00 0.00 93 1012.1
20260505041550 67 108 2.0 7.0 0.00 0.00 0.00 91 1012.1
20260505040053 67 173 2.0 7.0 0.00 0.00 0.00 91 1012.5
20260505034544 68 142 2.0 6.0 0.00 0.00 0.00 90 1012.8
20260505033041 68 157 3.0 8.0 0.00 0.00 0.00 89 1012.7
20260505031543 68 164 3.0 6.0 0.00 0.00 0.00 89 1012.4
20260505030045 68 150 2.0 6.0 0.00 0.00 0.00 88 1012.5
20260505024556 69 165 2.0 8.0 0.00 0.00 0.00 87 1012.5
20260505023044 69 153 3.0 9.0 0.00 0.00 0.00 86 1012.5
20260505021544 70 162 4.0 10.0 0.00 0.00 0.00 85 1012.3
20260505020041 70 173 4.0 10.0 0.00 0.00 0.00 85 1012.1
20260505014603 70 149 4.0 10.0 0.00 0.00 0.00 84 1012.0
20260505013046 70 162 6.0 14.0 0.00 0.00 0.00 83 1012.0
20260505011554 71 175 6.0 11.0 0.00 0.00 0.00 83 1012.1
20260505010044 71 157 5.0 12.0 0.00 0.00 0.00 82 1012.2
20260505004543 71 150 4.0 12.0 0.00 0.00 0.00 81 1012.2
20260505003044 72 138 6.0 12.0 0.00 0.00 0.00 80 1012.2
20260505001544 72 124 6.0 11.0 0.00 0.00 0.00 79 1012.3
20260505000057 73 155 2.0 12.0 0.00 0.00 0.00 78 1012.6
20260504234548 73 171 3.0 10.0 0.00 0.00 0.00 77 1012.7
20260504233104 74 115 5.0 16.0 0.00 0.00 0.00 76 1012.7
20260504231538 75 163 5.0 14.0 0.00 0.00 0.00 73 1012.7
20260504230044 75 171 5.0 15.0 0.00 0.00 0.00 73 1012.9
20260504224548 76 232 3.0 16.0 0.00 0.00 0.00 72 1013.0
20260504223055 76 265 7.0 15.0 0.00 0.00 0.00 73 1013.0
20260504221539 76 182 5.0 17.0 0.00 0.00 0.00 73 1013.1
20260504220044 76 259 6.0 17.0 0.00 0.00 0.00 73 1013.2
20260504214544 77 198 5.0 13.0 0.00 0.00 0.00 72 1013.3
20260504213053 77 188 10.0 17.0 0.00 0.00 0.00 70 1013.5
20260504211541 76 183 7.0 16.0 0.00 0.00 0.00 71 1013.6
20260504210046 76 165 3.0 13.0 0.00 0.00 0.00 70 1014.1
20260504204545 76 162 7.0 17.0 0.00 0.00 0.00 71 1014.3
20260504203058 77 209 4.0 18.0 0.00 0.00 0.00 70 1014.2
20260504201541 77 178 5.0 16.0 0.00 0.00 0.00 69 1014.5
20260504200046 76 170 6.0 15.0 0.00 0.00 0.00 69 1014.9
20260504194538 76 225 5.0 18.0 0.00 0.00 0.00 69 1015.1
20260504193044 76 187 7.0 18.0 0.00 0.00 0.00 69 1015.3
20260504191548 76 178 4.0 19.0 0.00 0.00 0.00 70 1015.2
20260504190049 77 225 9.0 18.0 0.00 0.00 0.00 67 1015.6
20260504184540 76 213 7.0 17.0 0.00 0.00 0.00 68 1015.8
20260504183044 76 175 8.0 15.0 0.00 0.00 0.00 67 1015.9
20260504181548 76 160 9.0 21.0 0.00 0.00 0.00 68 1015.8
20260504180046 75 177 11.0 19.0 0.00 0.00 0.00 67 1016.1
20260504174544 76 186 6.0 16.0 0.00 0.00 0.00 66 1016.2
20260504173041 75 160 7.0 17.0 0.00 0.00 0.00 68 1016.4
20260504171545 76 178 3.0 10.0 0.00 0.00 0.00 70 1016.5
20260504081541 51 9 0.0 1.0 0.00 0.00 0.00 95 1017.2